This demonstration page uses our WeatherBlox Daily Observations layout. Learn more.

Left ArrowRight Arrow

34.02893, -84.19858

Hourly Observations for April 30, 2019

Temp ( °F °C ) Dew Point ( °F °C ) Humidity (%) Winds ( mph kmh ) Pressure ( in mb ) Visibility ( mi km ) Precip ( " mm )
12:53 am 00:53 Clear 63 17.2 58 14.4 84 84 Calm 30.18 1022 10 16 0.00 0.00
1:53 am 01:53 Clear 61 16.1 57 13.9 87 87 Calm 30.17 1022 10 16 0.00 0.00
2:53 am 02:53 Clear 62 16.7 57 13.9 84 84 SE 3 6 30.16 1021 10 16 0.00 0.00
3:53 am 03:53 Clear 63 17.2 57 13.9 81 81 Calm 30.16 1021 10 16 0.00 0.00
4:53 am 04:53 Clear 60 15.6 57 13.9 90 90 Calm 30.19 1022 10 16 0.00 0.00
5:53 am 05:53 Clear 58 14.4 57 13.9 97 97 SE 3 6 30.20 1023 10 16 0.00 0.00
6:53 am 06:53 Sunny 58 14.4 57 13.9 97 97 Calm 30.21 1023 9 14 0.00 0.00
7:53 am 07:53 Sunny 63 17.2 59 15 87 87 Calm 30.22 1023 10 16 0.00 0.00
8:53 am 08:53 Sunny 67 19.4 60 15.6 79 79 S 3 6 30.22 1023 10 16 0.00 0.00
9:53 am 09:53 Sunny 71 21.7 60 15.6 68 68 VRB 3 6 30.21 1023 10 16 0.00 0.00
10:53 am 10:53 Sunny 75 23.9 61 16.1 62 62 W 3 6 30.22 1023 10 16 0.00 0.00
11:53 am 11:53 Sunny 79 26.1 62 16.7 56 56 E 6 9 30.22 1023 10 16 0.00 0.00
12:53 pm 12:53 Sunny 81 27.2 61 16.1 51 51 VRB 5 7 30.21 1023 10 16 0.00 0.00
1:53 pm 13:53 Mostly Sunny 82 27.8 60 15.6 47 47 SSW 7 11 30.20 1023 10 16 0.00 0.00
2:53 pm 14:53 Mostly Sunny 84 28.9 61 16.1 46 46 SSW 8 13 30.18 1022 10 16 0.00 0.00
3:41 pm 15:41 Mostly Sunny 83 28.3 60 15.6 46 46 VRB 7 11 30.14 1021 10 16 0.00 0.00
3:53 pm 15:53 Sunny 83 28.3 60 15.6 46 46 SSE 7 11 30.16 1021 10 16 0.00 0.00
4:53 pm 16:53 Mostly Sunny 84 28.9 61 16.1 46 46 SSE 6 9 30.15 1021 10 16 0.00 0.00
5:53 pm 17:53 Mostly Sunny 82 27.8 61 16.1 49 49 SSE 6 9 30.15 1021 10 16 0.00 0.00
6:53 pm 18:53 Sunny 80 26.7 60 15.6 51 51 SSE 8 13 30.15 1021 10 16 0.00 0.00
7:53 pm 19:53 Hazy 79 26.1 58 14.4 49 49 SSE 7 11 30.15 1021 6 10 0.00 0.00
8:53 pm 20:53 Clear 74 23.3 58 14.4 57 57 SE 3 6 30.16 1021 8 13 0.00 0.00
9:53 pm 21:53 Clear 73 22.8 58 14.4 59 59 VRB 3 6 30.16 1022 8 13 0.00 0.00
10:53 pm 22:53 Clear 69 20.6 59 15 70 70 Calm 30.17 1022 8 13 0.00 0.00
11:53 pm 23:53 Clear 69 20.6 60 15.6 73 73 Calm 30.16 1021 8 13 0.00 0.00

Powered by AerisWeather